Back to catalog

STARLINK-31265

AliveCommunicationsVLEO
NORAD 59074·PAYLOAD·🇺🇸 United States

Launched Feb 29, 2024 from Cape Canaveral Space Force Station

Loading…

Next Passes (next 24 hours)

TLE

FreshSource: CelesTrak SupGP

Epoch: Sep 14, 2026, 22:06 UTC

1 59074C 24041A   26257.92131944 -.00021243  00000+0 -76944-3 0  2574
2 59074  43.0008 322.0353 0001533 267.0093  31.1893 15.27588239    15

Track STARLINK-31265 in real time with AllMySat

Download on the App Store